Bellingham, WA
on Tuesday, February 26, 2013

Tuesday
Previous Day Next Day
Daily Summary
 ActualAverageRecord
Temperature
Mean Temperature °F 42°F  
Max Temperature 50°F 50°F 65°F (1992)
Min Temperature 41°F 34°F 18°F (1962)
Degree Days
Heating Degree Days 20 23  
Month to date heating degree days 633  
Cooling Degree Days 0 0  
Month to date cooling degree days 0  
Year to date cooling degree days 0  
Moisture
Dew Point 34°F   
Average Humidity 62    
Maximum Humidity 80    
Minimum Humidity 48    
Precipitation
Precipitation 0.00 in 0.10 in 0.82 in (1980)
Month to date precipitation 2.81  
Year to date precipitation 7.48  
Wind
Wind Speed 7 mph   
Max Wind Speed 16 mph   
Max Gust Speed 25 mph   
Visibility 10 miles   
Events Rain   

Key: T is trace of precipitation, MM is missing value
Source: NWS Daily Summary
Time(PST)TemperatureDew PointHumidity Pressure Visibility Wind DirectionWind SpeedGust SpeedPrecipitationEvents Conditions
12:53 AM 42.1°F 36.0°F 79% 30.29 in 10.0 miles South 3.5 mph - N/A   Clear
1:53 AM 41.0°F 35.1°F 79% 30.30 in 10.0 miles Calm Calm - N/A   Partly Cloudy
2:53 AM 42.1°F 36.0°F 79% 30.31 in 10.0 miles SSE 5.8 mph - N/A   Scattered Clouds
3:42 AM 42.8°F 35.6°F 76% 30.29 in 10.0 miles SE 4.6 mph - N/A   Mostly Cloudy
3:53 AM 43.0°F 37.0°F 80% 30.32 in 10.0 miles SE 4.6 mph - N/A   Overcast
4:40 AM 44.6°F 35.6°F 71% 30.30 in 10.0 miles SSE 6.9 mph - N/A   Mostly Cloudy
4:53 AM 44.1°F 36.0°F 73% 30.32 in 10.0 miles SSE 6.9 mph - N/A   Overcast
5:53 AM 45.0°F 35.1°F 68% 30.33 in 10.0 miles SSE 10.4 mph - N/A   Overcast
6:53 AM 44.1°F 34.0°F 68% 30.33 in 10.0 miles SSE 5.8 mph - N/A   Mostly Cloudy
7:53 AM 45.0°F 34.0°F 65% 30.34 in 10.0 miles South 8.1 mph - N/A   Overcast
8:53 AM 46.0°F 34.0°F 63% 30.34 in 10.0 miles SSE 9.2 mph - N/A   Overcast
9:53 AM 48.0°F 34.0°F 58% 30.33 in 10.0 miles SSE 16.1 mph 20.7 mph N/A   Partly Cloudy
10:53 AM 50.0°F 34.0°F 54% 30.32 in 10.0 miles SSE 12.7 mph - N/A   Scattered Clouds
11:53 AM 50.0°F 35.1°F 57% 30.30 in 10.0 miles SE 10.4 mph - N/A   Overcast
12:53 PM 50.0°F 33.1°F 52% 30.28 in 10.0 miles SE 11.5 mph - N/A   Overcast
1:53 PM 50.0°F 30.9°F 48% 30.27 in 10.0 miles SE 10.4 mph - N/A   Overcast
2:53 PM 50.0°F 30.9°F 48% 30.26 in 10.0 miles SE 8.1 mph - N/A   Overcast
3:53 PM 50.0°F 32.0°F 50% 30.24 in 10.0 miles SE 9.2 mph - N/A   Overcast
4:53 PM 48.9°F 33.1°F 54% 30.22 in 10.0 miles ESE 10.4 mph - N/A   Overcast
5:53 PM 48.9°F 32.0°F 52% 30.21 in 10.0 miles SE 12.7 mph - N/A   Overcast
6:53 PM 46.9°F 35.1°F 63% 30.20 in 10.0 miles East 9.2 mph 25.3 mph 0.00 in Rain Light Rain
7:53 PM 46.9°F 34.0°F 61% 30.19 in 10.0 miles ESE 12.7 mph 20.7 mph 0.00 in   Overcast
8:53 PM 48.0°F 32.0°F 54% 30.19 in 10.0 miles SSE 15.0 mph 24.2 mph N/A   Overcast
9:53 PM 48.0°F 32.0°F 54% 30.17 in 10.0 miles ESE 9.2 mph - N/A   Overcast
10:53 PM 48.9°F 32.0°F 52% 30.17 in 10.0 miles SE 15.0 mph 23.0 mph 0.00 in Rain Light Rain
11:53 PM 48.9°F 34.0°F 56% 30.18 in 10.0 miles SSE 16.1 mph 25.3 mph 0.00 in   Overcast
Moon Phase
Feb. 26 Mar. 04 Mar. 11 Mar. 19 Mar. 27
Sunrise:06:57 AM (PST) Moon Rise:07:23 PM (PST)2/26
Sunset:05:49 PM (PST) Moon Set:06:53 AM (PST)2/26

Copyright © 2014 The Weather Underground, Inc.